TimeCDT,TemperatureF,Dew PointF,Humidity,Sea Level PressureIn,VisibilityMPH,Wind Direction,Wind SpeedMPH,Gust SpeedMPH,PrecipitationIn,Events,Conditions,WindDirDegrees,DateUTC
12:52 AM,60.1,51.1,72,29.50,10.0,SSW,9.2,-,N/A,,Partly Cloudy,200,2012-10-17 05:52:00
1:52 AM,61.0,51.1,70,29.49,10.0,SSW,10.4,-,N/A,,Partly Cloudy,210,2012-10-17 06:52:00
2:52 AM,62.1,51.1,67,29.48,10.0,SSW,10.4,-,N/A,,Clear,210,2012-10-17 07:52:00
3:52 AM,59.0,50.0,72,29.49,10.0,SSW,10.4,-,N/A,,Clear,210,2012-10-17 08:52:00
4:52 AM,60.1,48.9,67,29.48,10.0,SSW,11.5,-,N/A,,Clear,210,2012-10-17 09:52:00
5:52 AM,60.1,48.0,64,29.49,10.0,SW,12.7,-,N/A,,Clear,230,2012-10-17 10:52:00
6:52 AM,59.0,46.9,64,29.48,10.0,SW,11.5,-,N/A,,Partly Cloudy,220,2012-10-17 11:52:00
7:52 AM,60.1,46.9,62,29.48,10.0,SSW,10.4,-,N/A,,Mostly Cloudy,210,2012-10-17 12:52:00
8:52 AM,61.0,48.9,64,29.48,10.0,SSW,13.8,-,N/A,,Mostly Cloudy,200,2012-10-17 13:52:00
9:52 AM,62.6,50.0,63,29.48,10.0,SSW,11.5,-,N/A,,Mostly Cloudy,210,2012-10-17 14:52:00
10:52 AM,64.0,48.9,58,29.47,10.0,SSW,15.0,21.9,N/A,,Mostly Cloudy,200,2012-10-17 15:52:00
11:52 AM,64.4,50.0,59,29.44,10.0,South,12.7,-,N/A,,Mostly Cloudy,190,2012-10-17 16:52:00
12:52 PM,66.9,51.1,57,29.42,10.0,South,17.3,24.2,N/A,,Mostly Cloudy,170,2012-10-17 17:52:00
1:52 PM,66.0,51.1,59,29.41,10.0,South,18.4,23.0,N/A,,Overcast,170,2012-10-17 18:52:00
2:52 PM,66.0,51.1,59,29.39,10.0,South,19.6,27.6,N/A,,Mostly Cloudy,180,2012-10-17 19:52:00
3:52 PM,64.9,52.0,63,29.38,10.0,South,11.5,-,N/A,,Overcast,190,2012-10-17 20:52:00
4:52 PM,66.0,53.1,63,29.38,10.0,South,17.3,21.9,N/A,,Overcast,180,2012-10-17 21:52:00
5:20 PM,64.4,53.6,68,29.38,10.0,South,18.4,25.3,N/A,,Overcast,190,2012-10-17 22:20:00
5:52 PM,63.0,54.0,72,29.37,10.0,South,12.7,-,N/A,,Overcast,190,2012-10-17 22:52:00
6:52 PM,60.1,55.9,86,29.34,6.0,SSE,15.0,-,0.02,Rain,Light Rain,160,2012-10-17 23:52:00
7:00 PM,60.8,57.2,88,29.35,6.0,South,12.7,-,0.00,Rain,Light Rain,170,2012-10-18 00:00:00
7:13 PM,60.8,57.2,88,29.35,9.0,SSE,13.8,-,0.00,Rain,Light Rain,160,2012-10-18 00:13:00
7:32 PM,59.0,57.2,94,29.34,5.0,SSE,17.3,23.0,0.00,Rain,Light Rain,160,2012-10-18 00:32:00
7:52 PM,59.0,57.0,93,29.33,5.0,SSE,18.4,27.6,0.00,,Overcast,160,2012-10-18 00:52:00
8:52 PM,57.0,55.0,93,29.29,6.0,SSE,18.4,28.8,0.05,Rain,Light Rain,150,2012-10-18 01:52:00
9:11 PM,55.4,53.6,94,29.29,4.0,SSE,21.9,33.4,0.00,Rain,Light Rain,150,2012-10-18 02:11:00
9:26 PM,55.4,53.6,94,29.28,5.0,SSE,18.4,31.1,0.06,Rain,Light Rain,150,2012-10-18 02:26:00
9:52 PM,57.0,54.0,89,29.27,3.0,SSE,19.6,26.5,0.15,Rain,Heavy Rain,160,2012-10-18 02:52:00
10:25 PM,57.2,53.6,88,29.25,4.0,SSE,20.7,28.8,0.16,Rain,Rain,150,2012-10-18 03:25:00
10:52 PM,57.0,55.0,93,29.23,10.0,SSE,23.0,32.2,0.16,Rain,Light Rain,160,2012-10-18 03:52:00
11:12 PM,57.2,55.4,94,29.23,7.0,South,13.8,27.6,0.02,Rain,Light Rain,180,2012-10-18 04:12:00
11:31 PM,53.6,51.8,94,29.24,10.0,NW,17.3,20.7,0.03,Rain,Light Rain,310,2012-10-18 04:31:00
11:34 PM,53.6,51.8,94,29.23,10.0,NW,13.8,20.7,0.03,,Overcast,320,2012-10-18 04:34:00
11:52 PM,54.0,51.1,90,29.26,10.0,West,11.5,18.4,0.03,Rain,Light Rain,280,2012-10-18 04:52:00